Regional Weather Roundup
Issued by NWS

Home | Current Version | Previous Version | Graphics & Text | Print | Product List | Glossary On
Versions: 1 2 3 4 5 6 7 8 9 10 11 12 13 14 15 16 17 18 19 20 21 22 23 24 25 26 27 28 29 30 31 32 33 34 35 36 37 38 39 40 41 42 43 44 45 46 47 48 49 50
000
ASUS43 KOAX 222102
RWRNE

WEATHER ROUNDUP FOR NEBRASKA
NATIONAL WEATHER SERVICE OMAHA NE
400 PM CDT FRI AUG 22 2014

NOTES: SATELLITE DATA IS BEING USED TO AUGMENT CLOUD COVER ABOVE
       12000 FEET.
       "FAIR" INDICATES FEW OR NO CLOUDS BELOW 12,000 FEET WITH NO
       SIGNIFICANT WEATHER AND/OR OBSTRUCTIONS TO VISIBILITY.

  * THESE STATIONS DO NOT REPORT WEATHER SUCH AS RAIN...SNOW OR FOG.

NEZ001>004-019>022-054>056-222200-
NEBRASKA PANHANDLE

CITY           SKY/WX    TMP DP  RH WIND       PRES   REMARKS
SCOTTSBLUFF    CLOUDY    76  58  53 SE17G23   30.04F
ALLIANCE       CLOUDY    74  56  53 SE14      30.06F
CHADRON        CLOUDY    73  58  59 NE3       30.03F
KIMBALL        CLOUDY    72  56  57 SE14      30.08F
SIDNEY         LGT RAIN  64  61  90 N3        30.09F
$$

NEZ057>060-069>072-079>082-222200-
SOUTHWEST NEBRASKA

CITY           SKY/WX    TMP DP  RH WIND       PRES   REMARKS
NORTH PLATTE   PTSUNNY   84  59  42 NE14G20   30.00S
IMPERIAL       PTSUNNY   86  56  35 N15       30.02F
LEXINGTON      MOSUNNY   88  68  50 NE13      29.96F HX  92
MCCOOK         MOSUNNY   89  64  43 NE13      29.96F HX  90
OGALLALA       PTSUNNY   70  62  75 N7        30.05F
$$

NEZ005>010-023>029-035>040-094-222200-
NORTH CENTRAL NEBRASKA

CITY           SKY/WX    TMP DP  RH WIND       PRES   REMARKS
VALENTINE      CLOUDY    80  60  50 S6        30.00F
AINSWORTH      LGT RAIN  75  65  71 CALM      30.03F
BROKEN BOW     CLOUDY    84  71  65 N12       29.98F
O`NEILL        CLOUDY    81  71  70 NE7       30.00F
ORD            PTSUNNY   86  69  56 E10       29.95F HX  90
THEDFORD       PTSUNNY   76  64  66 N5        30.04S
$$

NEZ041-046>049-061>064-073>077-083>087-222200-
SOUTH CENTRAL NEBRASKA

CITY           SKY/WX    TMP DP  RH WIND       PRES   REMARKS
GRAND ISLAND   MOSUNNY   88  74  63 E7        29.95S HX  96
AURORA         MOSUNNY   86  76  71 NE3       29.93S HX  96
HASTINGS       LGT RAIN  82  70  66 E10       29.93F
HEBRON         SUNNY     87  69  54 SE5       29.91F HX  91
HOLDREGE       MOSUNNY   85  71  63 E12       29.95F HX  90
KEARNEY *      MOSUNNY   86  73  66 NE13      29.95F HX  93
YORK           PTSUNNY   86 N/A N/A NE6       29.93S
$$

NEZ011>018-030>034-042>045-222200-
NORTHEAST NEBRASKA

CITY           SKY/WX    TMP DP  RH WIND       PRES   REMARKS
NORFOLK        MOSUNNY   88  70  55 NE9       29.94S HX  93
ALBION         MOSUNNY   87  69  55 NE10      29.96R HX  91
BLAIR          PTSUNNY   90  75  61 NE6       29.91S HX 101
FREMONT        PTSUNNY   90  74  60 N12G17    29.92S HX  99
TEKAMAH        PTSUNNY   85  74  69 E3        29.91S HX  92
WAYNE          MOSUNNY   88  75  65 NE5       29.95S HX  97
$$

NEZ050>053-065>068-078-088>093-222200-
SOUTHEAST NEBRASKA

CITY           SKY/WX    TMP DP  RH WIND       PRES   REMARKS
LINCOLN        CLOUDY    90  74  59 SE9       29.90S HX  99
OMAHA EPPLEY   PTSUNNY   89  75  63 E9        29.89S HX  99
BEATRICE       CLOUDY    82  74  77 SE3       29.92F
FALLS CITY     CLOUDY    80  77  90 SE9       29.92F
NEBRASKA CITY  CLOUDY    80  74  84 S8        29.94S
PLATTSMOUTH    PTSUNNY   84  74  71 SE10G16   29.93R HX  91
$$

NEZ044-045-051>053-067-222200-
OMAHA AREA

CITY           SKY/WX    TMP DP  RH WIND       PRES   REMARKS
OMAHA EPPLEY   PTSUNNY   89  75  63 E9        29.89S HX  99
BLAIR          PTSUNNY   90  75  61 NE6       29.91S HX 101
FREMONT        PTSUNNY   90  74  60 N12G17    29.92S HX  99
MILLARD        CLOUDY    89  76  65 E5        29.89S HX 100
OFFUTT AFB     PTSUNNY   87  81  80 E7        29.90S HX 104
PLATTSMOUTH    PTSUNNY   84  74  71 SE10G16   29.93R HX  91
WAHOO          FAIR      91  72  54 MISG      29.91R HX  98
$$



USA.gov is the U.S. government's official web portal to all federal, state and local government web resources and services.